Zurück zum Katalog

STARLINK-34601

AktivKommunikationVLEO
NORAD 65084·PAYLOAD·🇺🇸 United States

Gestartet Aug 4, 2025 von Cape Canaveral Space Force Station

Loading…

Nächste Überflüge (nächste 24 Stunden)

TLE

AktuellSource: CelesTrak SupGP

Epoche: Sep 15, 2026, 04:03 UTC

1 65084C 25167G   26258.16923611 -.00053133  00000+0 -15700-2 0  2585
2 65084  53.1575 218.8308 0001461  93.1364  85.1076 15.34413294    13

Verfolge STARLINK-34601 in Echtzeit mit AllMySat

Download on the App Store